TimeMST,TemperatureF,Dew PointF,Humidity,Sea Level PressureIn,VisibilityMPH,Wind Direction,Wind SpeedMPH,Gust SpeedMPH,PrecipitationIn,Events,Conditions,WindDirDegrees,DateUTC
9:35 AM,55.2,15.1,21,30.17,10.0,SSE,9.2,-,N/A,,Clear,160,2012-11-08 16:35:00
9:55 AM,56.3,14.4,19,30.16,10.0,SE,9.2,-,N/A,,Clear,130,2012-11-08 16:55:00
10:15 AM,58.8,14.4,18,30.15,10.0,South,16.1,24.2,N/A,,Clear,180,2012-11-08 17:15:00
10:35 AM,59.4,14.0,17,30.14,10.0,South,17.3,26.5,N/A,,Clear,170,2012-11-08 17:35:00
10:55 AM,60.1,14.0,16,30.12,10.0,South,16.1,26.5,N/A,,Clear,170,2012-11-08 17:55:00
11:15 AM,60.3,13.5,16,30.11,10.0,South,12.7,23.0,N/A,,Clear,170,2012-11-08 18:15:00
11:35 AM,61.0,13.3,15,30.10,10.0,South,18.4,28.8,N/A,,Clear,180,2012-11-08 18:35:00
11:55 AM,61.5,13.1,15,30.08,10.0,South,13.8,25.3,N/A,,Clear,170,2012-11-08 18:55:00
12:15 PM,62.1,13.1,15,30.07,10.0,South,17.3,26.5,N/A,,Clear,170,2012-11-08 19:15:00
12:35 PM,61.2,13.5,16,30.06,10.0,South,19.6,27.6,N/A,,Clear,180,2012-11-08 19:35:00
12:55 PM,60.6,13.5,16,30.06,10.0,South,18.4,31.1,N/A,,Clear,180,2012-11-08 19:55:00
1:15 PM,60.1,14.0,16,30.05,10.0,South,18.4,33.4,N/A,,Clear,170,2012-11-08 20:15:00
1:35 PM,61.3,14.4,16,30.05,10.0,SSE,10.4,20.7,N/A,,Clear,160,2012-11-08 20:35:00
1:55 PM,60.8,14.5,16,30.04,10.0,South,21.9,31.1,N/A,,Clear,180,2012-11-08 20:55:00
2:15 PM,59.2,14.9,18,30.04,10.0,South,21.9,31.1,N/A,,Clear,170,2012-11-08 21:15:00
2:35 PM,60.1,15.8,18,30.03,10.0,South,23.0,35.7,N/A,,Clear,180,2012-11-08 21:35:00
2:55 PM,59.9,16.0,18,30.03,10.0,South,23.0,34.5,N/A,,Clear,180,2012-11-08 21:55:00
3:15 PM,59.4,16.7,19,30.03,10.0,South,19.6,34.5,N/A,,Clear,190,2012-11-08 22:15:00
3:35 PM,58.6,17.8,20,30.03,10.0,South,17.3,29.9,N/A,,Clear,180,2012-11-08 22:35:00
3:55 PM,58.1,18.5,21,30.04,10.0,South,17.3,25.3,N/A,,Clear,170,2012-11-08 22:55:00
4:15 PM,57.2,19.8,23,30.04,10.0,South,16.1,24.2,N/A,,Clear,180,2012-11-08 23:15:00
4:35 PM,56.5,20.3,24,30.03,10.0,South,13.8,23.0,N/A,,Clear,180,2012-11-08 23:35:00
4:55 PM,56.3,20.3,25,30.02,10.0,South,17.3,26.5,N/A,,Clear,180,2012-11-08 23:55:00
5:15 PM,56.3,20.3,25,30.02,10.0,South,13.8,25.3,N/A,,Clear,180,2012-11-09 00:15:00
5:55 PM,55.9,20.8,26,30.04,10.0,South,8.1,19.6,N/A,,Clear,190,2012-11-09 00:55:00
6:15 PM,55.9,20.3,25,30.04,10.0,SSW,9.2,16.1,N/A,,Clear,200,2012-11-09 01:15:00
6:35 PM,55.4,19.4,25,30.03,10.0,South,4.6,-,N/A,,Clear,180,2012-11-09 01:35:00
6:55 PM,51.4,19.8,29,30.04,10.0,North,5.8,-,N/A,,Clear,360,2012-11-09 01:55:00
7:15 PM,50.2,20.1,31,30.03,10.0,NW,9.2,-,N/A,,Clear,310,2012-11-09 02:15:00
7:35 PM,50.4,18.9,29,30.03,10.0,NW,9.2,-,N/A,,Clear,310,2012-11-09 02:35:00
7:55 PM,49.3,18.3,29,30.03,10.0,WNW,8.1,-,N/A,,Clear,300,2012-11-09 02:55:00
8:15 PM,48.9,17.6,29,30.02,10.0,West,8.1,-,N/A,,Clear,280,2012-11-09 03:15:00
8:35 PM,48.2,16.9,29,30.02,10.0,West,3.5,-,N/A,,Clear,260,2012-11-09 03:35:00
8:55 PM,47.3,16.3,29,30.02,10.0,SSW,4.6,-,N/A,,Clear,210,2012-11-09 03:55:00
9:15 PM,50.0,15.6,25,30.02,10.0,Calm,Calm,-,N/A,,Clear,0,2012-11-09 04:15:00
9:55 PM,48.6,14.7,26,30.02,10.0,WSW,3.5,-,N/A,,Clear,250,2012-11-09 04:55:00
10:15 PM,48.4,13.3,24,30.02,10.0,Calm,Calm,-,N/A,,Clear,0,2012-11-09 05:15:00
10:55 PM,50.9,12.7,22,30.02,10.0,SSW,11.5,19.6,N/A,,Clear,210,2012-11-09 05:55:00
11:15 PM,50.9,13.5,22,30.01,10.0,SW,12.7,23.0,N/A,,Clear,220,2012-11-09 06:15:00
11:35 PM,51.8,13.3,22,30.01,10.0,SW,16.1,20.7,N/A,,Clear,220,2012-11-09 06:35:00
11:55 PM,50.5,13.6,23,30.00,10.0,SW,16.1,24.2,N/A,,Clear,220,2012-11-09 06:55:00